Location: Smoky Mountain Stargaze
(35.4252°N, 83.3329°W)
Time: 17:44:24
(UTC-04:00)

Amateur Radio Satellites - All Passes

Search period start: 21 August 2017 17:14
Search period end: 22 August 2017 17:14
Location: Smoky Mountain Stargaze, 35.4252°N, 83.3329°W

Satellite Date Start Highest point End Downlink Frequencies (MHz)
Time Altitude Azimuth
MOZHAYETS 4 21 Aug 17:22:42 17:27:06 45° 287° (WNW) 17:31:30
KKS-1 21 Aug 17:30:14 17:32:44 15° 94° (E) 17:35:13 437.445
ISS 21 Aug 17:37:04 17:40:16 55° 39° (NE) 17:43:28 437.550
AO-7 21 Aug 17:41:26 17:48:03 26° 264° (W) 17:54:44 .
CUBESAT XI-V 21 Aug 17:44:11 17:48:50 56° 100° (E) 17:53:27 437.345
nSIGHT-1 21 Aug 17:44:31 17:47:45 73° 40° (NE) 17:50:58 .
BEESAT 21 Aug 17:45:29 17:49:17 24° 292° (WNW) 17:53:07 436.000
Tancredo 1 21 Aug 17:53:26 17:55:12 15° 231° (SW) 17:56:58 437.200
RS-15 21 Aug 17:57:36 18:04:29 16° 16° (NNE) 18:11:12 29.354- 29.394
ITAMSAT 1 21 Aug 17:59:11 17:59:58 10° 269° (W) 18:00:47 435.822/435.867
XW-2C 21 Aug 18:00:37 18:02:44 15° 69° (ENE) 18:04:52 145.795 - 145.815
STARS 21 Aug 18:06:42 18:09:12 15° 94° (E) 18:11:39 437.465
XW-2F 21 Aug 18:11:33 18:14:12 19° 70° (ENE) 18:16:52 145.980 - 146.000
ITUPSAT 1 21 Aug 18:22:27 18:23:48 11° 297° (WNW) 18:25:10 437.325
SRMSAT 21 Aug 18:26:18 18:27:44 11° 194° (SSW) 18:29:09 437.500
CUTE-I 21 Aug 18:29:21 18:34:14 37° 70° (ENE) 18:39:07 437.470
HO-68 21 Aug 18:31:32 18:36:10 19° 59° (ENE) 18:40:48 435.675
KAITUO 1B 21 Aug 18:34:45 18:37:58 29° 73° (ENE) 18:41:13 145.475/437.950
DOVE 4 21 Aug 18:47:50 18:52:52 44° 262° (W) 18:57:50 437.250
CUTE 1.7 + AOD 2 21 Aug 18:51:54 18:53:08 11° 66° (ENE) 18:54:23 437.475
LilacSat-2 21 Aug 18:59:22 19:03:08 83° 256° (WSW) 19:06:57 437.200
XW-2D 21 Aug 19:02:36 19:06:21 78° 260° (W) 19:10:07 145.860 - 145.880
KKS-1 21 Aug 19:05:17 19:09:26 41° 288° (WNW) 19:13:34 437.445
NUDT-PHONESAT 21 Aug 19:05:49 19:09:27 77° 77° (ENE) 19:13:08 437.300
YUBILEINY 21 Aug 19:10:27 19:14:34 14° 296° (WNW) 19:18:42 435.215
XW-2B 21 Aug 19:13:45 19:17:26 56° 260° (W) 19:21:09 145.730 - 145.750
ISS 21 Aug 19:15:27 19:16:22 11° 234° (SW) 19:17:16 437.550
CUBESAT XI-V 21 Aug 19:23:29 19:25:40 13° 295° (WNW) 19:27:51 437.345
XW-2C 21 Aug 19:33:19 19:36:38 30° 263° (W) 19:39:59 145.795 - 145.815
SEEDS 21 Aug 19:35:53 19:39:10 23° 70° (ENE) 19:42:28 437.485
STARS 21 Aug 19:41:35 19:45:39 39° 287° (WNW) 19:49:42 437.465
XW-2F 21 Aug 19:45:10 19:48:09 23° 264° (W) 19:51:09 145.980 - 146.000
XW-2A 21 Aug 19:55:29 19:58:19 26° 73° (ENE) 20:01:09 145.665 - 145.685
KAITUO 1B 21 Aug 20:09:58 20:12:00 14° 267° (W) 20:14:03 145.475/437.950
CUTE-I 21 Aug 20:10:03 20:14:19 24° 265° (W) 20:18:34 437.470
RS-15 21 Aug 20:10:16 20:21:35 43° 48° (NE) 20:32:17 29.354- 29.394
STRAND 1 21 Aug 20:14:07 20:18:22 26° 96° (E) 20:22:37 437.568
HO-68 21 Aug 20:15:56 20:23:05 76° 256° (WSW) 20:30:16 435.675
AAUSAT CUBESAT 2 21 Aug 20:18:23 20:22:03 30° 72° (ENE) 20:25:43 437.432
O/OREOS (USA 219) 21 Aug 20:19:08 20:23:41 71° 69° (ENE) 20:28:14 437.305
CUTE 1.7 + AOD 2 21 Aug 20:24:19 20:28:27 54° 260° (W) 20:32:37 437.475
UWE-3 21 Aug 20:35:16 20:39:21 52° 75° (ENE) 20:43:24 435.000/436.395/437.385
Oscar 11 21 Aug 20:42:32 20:45:49 22° 69° (ENE) 20:49:07 .
CUBEBUG 2 21 Aug 20:44:15 20:48:31 64° 259° (W) 20:52:42 437.445
SEEDS 21 Aug 21:11:15 21:14:42 25° 264° (W) 21:18:11 437.485
ZACube-1 21 Aug 21:12:55 21:17:03 79° 78° (ENE) 21:21:12 437.345
DELFI C3 21 Aug 21:18:34 21:19:49 11° 66° (ENE) 21:21:04 145.870
XW-2A 21 Aug 21:29:47 21:31:04 12° 266° (W) 21:32:22 145.665 - 145.685
AO-73 21 Aug 21:33:37 21:37:43 64° 259° (WSW) 21:41:49 145.935
EO-88 21 Aug 21:45:55 21:47:29 12° 68° (ENE) 21:49:04 145.990 - 145.960
FO-29 21 Aug 21:50:53 21:54:14 17° 92° (E) 21:57:28 435.910
STRAND 1 21 Aug 21:53:03 21:57:29 31° 291° (WNW) 22:01:55 437.568
AAUSAT CUBESAT 2 21 Aug 21:54:41 21:57:30 18° 266° (W) 22:00:20 437.432
UNISAT 6 21 Aug 22:15:28 22:15:45 10° 92° (E) 22:16:02 437.425
Oscar 11 21 Aug 22:18:08 22:21:46 27° 264° (W) 22:25:26 .
SO-50 21 Aug 22:21:18 22:22:54 12° 107° (ESE) 22:24:29 436.795
RS-15 21 Aug 22:22:55 22:34:17 55° 250° (WSW) 22:45:06 29.354- 29.394
Max Valier Satellite 21 Aug 22:25:17 22:28:51 57° 76° (ENE) 22:32:26 145.860
PCSat 21 Aug 22:43:56 22:49:00 42° 110° (ESE) 22:54:06 145.827
TIGRISAT 21 Aug 22:47:19 22:50:50 24° 96° (E) 22:54:23 435.000
DELFI C3 21 Aug 22:50:16 22:54:06 47° 261° (W) 22:57:59 145.870
LO-87 21 Aug 23:11:39 23:14:09 18° 70° (ENE) 23:16:39 145.935 - 145.965
EO-88 21 Aug 23:17:30 23:20:48 33° 262° (W) 23:24:07 145.990 - 145.960
ESTCUBE 1 21 Aug 23:27:37 23:31:06 22° 69° (ENE) 23:34:36 437.505/2401.250
FO-29 21 Aug 23:34:29 23:39:41 46° 289° (WNW) 23:44:37 435.910
PRISM 21 Aug 23:35:45 23:39:50 64° 101° (ESE) 23:43:53 437.425
UNISAT 6 21 Aug 23:48:29 23:52:43 57° 285° (WNW) 23:57:03 437.425
SO-50 21 Aug 23:58:21 00:02:48 59° 302° (WNW) 00:07:16 436.795
POLYITAN 1 22 Aug 00:15:37 00:16:02 10° 92° (E) 00:16:26 437.675
TIGRISAT 22 Aug 00:23:53 00:27:25 25° 289° (WNW) 00:30:59 435.000
M-CUBED/EXP-1 PRIME 22 Aug 00:25:48 00:28:58 20° 98° (E) 00:31:57 437.505
PCSat 22 Aug 00:28:09 00:32:31 24° 307° (NW) 00:36:55 145.827
QB50P2 22 Aug 00:28:35 00:31:25 18° 94° (E) 00:34:16 145.880/145.840
EO-79 22 Aug 00:29:07 00:31:42 16° 94° (E) 00:34:18 145.935-145.965
NO-84 22 Aug 00:40:53 00:43:00 18° 126° (SE) 00:45:04 435.350 FM
LO-87 22 Aug 00:44:36 00:47:25 21° 264° (W) 00:50:13 145.935 - 145.965
DUCHIFAT 1 22 Aug 00:57:03 01:00:36 27° 97° (E) 01:04:08 145.980
ESTCUBE 1 22 Aug 01:03:49 01:07:43 29° 263° (W) 01:11:39 437.505/2401.250
SPROUT 22 Aug 01:05:07 01:09:19 67° 76° (ENE) 01:13:33 437.525
VELOX 1 22 Aug 01:05:16 01:09:36 53° 74° (ENE) 01:13:57 145.980
DX 1 22 Aug 01:05:44 01:08:07 15° 66° (ENE) 01:10:31 434.975-435.025
AIST 2D 22 Aug 01:07:13 01:10:41 50° 284° (WNW) 01:14:07 435.315
50 SAT 22 Aug 01:21:57 01:24:45 24° 72° (ENE) 01:27:34 437.505
NANOSAT C BR1 22 Aug 01:42:10 01:46:21 71° 284° (WNW) 01:50:31 145.865
POLYITAN 1 22 Aug 01:47:58 01:52:04 53° 285° (WNW) 01:56:11 437.675
M-CUBED/EXP-1 PRIME 22 Aug 01:59:42 02:03:21 28° 295° (WNW) 02:06:46 437.505
QB50P2 22 Aug 02:03:30 02:07:13 31° 288° (WNW) 02:10:57 145.880/145.840
EO-79 22 Aug 02:03:44 02:07:32 34° 288° (WNW) 02:11:20 145.935-145.965
UKube-1 22 Aug 02:15:38 02:19:53 59° 74° (ENE) 02:24:09 .
NO-84 22 Aug 02:17:51 02:20:16 23° 319° (NW) 02:22:36 435.350 FM
BUGSAT 1 22 Aug 02:27:45 02:31:47 87° 107° (ESE) 02:35:49 437.445
DUCHIFAT 1 22 Aug 02:32:57 02:36:05 21° 291° (WNW) 02:39:11 145.980
DX 1 22 Aug 02:39:43 02:43:53 44° 260° (W) 02:48:06 434.975-435.025
VELOX 1 22 Aug 02:44:49 02:46:19 11° 268° (W) 02:47:48 145.980
MOZHAYETS 4 22 Aug 02:48:32 02:48:59 10° 64° (ENE) 02:49:27
Gurwin Techsat 1B 22 Aug 02:51:47 02:56:42 37° 98° (E) 03:01:35 435.225
50 SAT 22 Aug 02:55:30 02:57:23 14° 266° (W) 02:59:16 437.505
Oscar 19 22 Aug 03:08:38 03:13:52 87° 103° (ESE) 03:19:03 437.125/150
BEESAT 22 Aug 03:11:10 03:15:01 25° 69° (ENE) 03:18:52 436.000
YUBILEINY 22 Aug 03:21:58 03:30:10 43° 77° (ENE) 03:38:17 435.215
ITUPSAT 1 22 Aug 03:45:23 03:50:01 57° 74° (ENE) 03:54:41 437.325
AO-7 22 Aug 03:53:06 03:59:20 23° 95° (E) 04:05:31 .
MOZHAYETS 4 22 Aug 04:20:59 04:25:30 69° 258° (WSW) 04:30:03
KKS-1 22 Aug 04:27:30 04:28:05 10° 64° (ENE) 04:28:41 437.445
ITAMSAT 1 22 Aug 04:31:08 04:35:47 33° 98° (E) 04:40:25 435.822/435.867
Gurwin Techsat 1B 22 Aug 04:32:13 04:36:23 24° 293° (WNW) 04:40:33 435.225
CUBESAT XI-V 22 Aug 04:44:19 04:48:35 38° 72° (ENE) 04:52:55 437.345
BEESAT 22 Aug 04:48:32 04:52:37 29° 263° (W) 04:56:44 436.000
Oscar 19 22 Aug 04:51:53 04:52:22 10° 299° (WNW) 04:52:52 437.125/150
BEESAT 3 22 Aug 04:53:50 04:57:17 28° 112° (ESE) 05:00:45 437.485
BEESAT 2 22 Aug 05:12:14 05:14:08 13° 108° (ESE) 05:16:03 435.950
YUBILEINY 22 Aug 05:19:04 05:26:41 36° 274° (W) 05:34:17 435.215
ITUPSAT 1 22 Aug 05:26:17 05:28:08 12° 268° (W) 05:30:01 437.325
AO-85 22 Aug 05:28:28 05:32:12 40° 115° (ESE) 05:35:53 145.980
AO-7 22 Aug 05:44:21 05:52:35 67° 291° (WNW) 06:00:46 .
KKS-1 22 Aug 05:59:35 06:04:02 67° 259° (W) 06:08:29 437.445
ITAMSAT 1 22 Aug 06:10:53 06:15:03 25° 292° (WNW) 06:19:13 435.822/435.867
CUBESAT XI-V 22 Aug 06:22:57 06:26:04 18° 267° (W) 06:29:12 437.345
BEESAT 3 22 Aug 06:31:42 06:34:49 21° 308° (NW) 06:37:58 437.485
STARS 22 Aug 06:34:24 06:38:47 68° 258° (WSW) 06:43:10 437.465
LilacSat-2 22 Aug 06:37:04 06:38:56 13° 93° (E) 06:40:48 437.200
XW-2D 22 Aug 06:39:30 06:41:26 13° 93° (E) 06:43:22 145.860 - 145.880
BEESAT 2 22 Aug 06:47:39 06:51:27 42° 303° (WNW) 06:55:19 435.950
XW-2B 22 Aug 06:49:58 06:52:36 18° 94° (E) 06:55:14 145.730 - 145.750
DOVE 4 22 Aug 06:50:11 06:54:38 67° 101° (E) 06:58:50 437.250
CUTE-I 22 Aug 06:50:16 06:53:53 18° 94° (E) 06:57:30 437.470
XW-2C 22 Aug 07:08:26 07:11:53 31° 97° (E) 07:15:19 145.795 - 145.815
AO-85 22 Aug 07:10:30 07:12:45 15° 311° (NW) 07:15:00 145.980
XW-2F 22 Aug 07:19:17 07:22:55 40° 99° (E) 07:26:32 145.980 - 146.000
STRAND 1 22 Aug 07:27:05 07:31:24 28° 69° (ENE) 07:35:42 437.568
PCSat 22 Aug 07:35:25 07:39:20 20° 51° (NE) 07:43:11 145.827
AO-7 22 Aug 07:40:30 07:43:47 13° 310° (NW) 07:47:03 .
KAITUO 1B 22 Aug 07:41:57 07:45:44 65° 101° (E) 07:49:30 145.475/437.950
HO-68 22 Aug 07:47:57 07:53:36 25° 95° (E) 07:59:13 435.675
LilacSat-2 22 Aug 08:09:45 08:13:18 35° 286° (WNW) 08:16:50 437.200
XW-2D 22 Aug 08:12:12 08:15:41 33° 287° (WNW) 08:19:09 145.860 - 145.880
CUTE 1.7 + AOD 2 22 Aug 08:12:16 08:16:06 31° 97° (E) 08:19:53 437.475
NUDT-PHONESAT 22 Aug 08:12:40 08:16:18 47° 285° (WNW) 08:19:54 437.300
XW-2B 22 Aug 08:23:32 08:26:44 25° 288° (WNW) 08:29:56 145.730 - 145.750
UWE-3 22 Aug 08:28:59 08:31:08 13° 93° (E) 08:33:17 435.000/436.395/437.385
CUTE-I 22 Aug 08:29:03 08:34:07 46° 288° (WNW) 08:39:09 437.470
SO-50 22 Aug 08:32:16 08:36:43 50° 57° (ENE) 08:41:12 436.795
CUBEBUG 2 22 Aug 08:37:52 08:41:38 31° 97° (E) 08:45:29 437.445
Tancredo 1 22 Aug 08:41:34 08:44:16 36° 133° (SE) 08:46:58 437.200
XW-2C 22 Aug 08:43:31 08:45:46 15° 291° (WNW) 08:48:00 145.795 - 145.815
XW-2A 22 Aug 08:52:00 08:55:17 44° 99° (E) 08:58:33 145.665 - 145.685
NO-84 22 Aug 08:52:26 08:55:17 33° 43° (NE) 08:58:20 435.350 FM
O/OREOS (USA 219) 22 Aug 08:52:30 08:53:51 11° 98° (E) 08:55:14 437.305
XW-2F 22 Aug 08:55:14 08:56:38 12° 293° (WNW) 08:58:01 145.980 - 146.000
SEEDS 22 Aug 08:56:59 09:01:14 66° 101° (E) 09:05:25 437.485
ZACube-1 22 Aug 09:04:39 09:07:45 19° 95° (E) 09:10:53 437.345
STRAND 1 22 Aug 09:06:04 09:10:27 29° 263° (W) 09:14:52 437.568
PCSat 22 Aug 09:17:45 09:23:03 55° 248° (WSW) 09:28:18 145.827
AO-73 22 Aug 09:24:23 09:28:09 28° 97° (E) 09:31:58 145.935
HO-68 22 Aug 09:34:39 09:41:34 54° 290° (WNW) 09:48:29 435.675
AAUSAT CUBESAT 2 22 Aug 09:38:02 09:42:14 89° 102° (ESE) 09:46:23 437.432
FO-29 22 Aug 09:40:41 09:48:03 54° 72° (ENE) 09:54:46 435.910
TIGRISAT 22 Aug 09:44:14 09:46:37 15° 67° (ENE) 09:48:59 435.000
CUTE 1.7 + AOD 2 22 Aug 09:48:38 09:51:40 19° 291° (WNW) 09:54:41 437.475
UWE-3 22 Aug 10:03:40 10:07:43 43° 286° (WNW) 10:11:51 435.000/436.395/437.385
Oscar 11 22 Aug 10:07:23 10:11:44 67° 101° (E) 10:16:03 .
SO-50 22 Aug 10:14:12 10:16:45 15° 251° (WSW) 10:19:17 436.795
ISS 22 Aug 10:14:30 10:17:46 82° 315° (NW) 10:21:04 437.550
CUBEBUG 2 22 Aug 10:15:04 10:18:02 19° 291° (WNW) 10:21:02 437.445
Tancredo 1 22 Aug 10:17:32 10:19:32 17° 329° (NNW) 10:21:32 437.200
nSIGHT-1 22 Aug 10:20:56 10:24:11 64° 320° (NW) 10:27:26 .
PRISM 22 Aug 10:21:57 10:25:33 29° 71° (ENE) 10:29:10 437.425
O/OREOS (USA 219) 22 Aug 10:28:22 10:32:43 52° 292° (WNW) 10:37:06 437.305
RS-15 22 Aug 10:29:45 10:40:07 35° 104° (ESE) 10:50:37 29.354- 29.394
DELFI C3 22 Aug 10:30:29 10:33:46 25° 96° (E) 10:37:02 145.870
NO-84 22 Aug 10:30:31 10:32:30 15° 234° (SW) 10:34:34 435.350 FM
ZACube-1 22 Aug 10:40:13 10:44:01 31° 288° (WNW) 10:47:53 437.345
UNISAT 6 22 Aug 10:43:54 10:48:15 83° 74° (ENE) 10:52:32 437.425
JUGNU 22 Aug 10:44:09 10:47:04 14° 170° (S) 10:49:59 437.505
EO-88 22 Aug 10:49:11 10:52:09 23° 96° (E) 10:55:07 145.990 - 145.960
AO-73 22 Aug 11:00:56 11:04:11 21° 290° (WNW) 11:07:29 145.935
M-CUBED/EXP-1 PRIME 22 Aug 11:08:03 11:11:14 19° 62° (ENE) 11:14:30 437.505
TIGRISAT 22 Aug 11:18:50 11:22:56 40° 261° (W) 11:27:00 435.000
FO-29 22 Aug 11:26:56 11:33:08 27° 264° (W) 11:38:58 435.910
Max Valier Satellite 22 Aug 11:31:35 11:35:15 63° 284° (WNW) 11:38:55 145.860
AIST 2D 22 Aug 11:38:27 11:41:31 30° 73° (ENE) 11:44:37 435.315
DUCHIFAT 1 22 Aug 11:47:05 11:49:13 14° 67° (ENE) 11:51:22 145.980
ISS 22 Aug 11:53:18 11:54:42 12° 335° (NNW) 11:56:06 437.550
PRISM 22 Aug 11:57:53 12:00:49 18° 265° (W) 12:03:45 437.425
nSIGHT-1 22 Aug 12:00:19 12:01:05 11° 337° (NNW) 12:01:52 .
DELFI C3 22 Aug 12:05:27 12:08:21 20° 290° (WNW) 12:11:13 145.870
LO-87 22 Aug 12:13:42 12:16:54 31° 98° (E) 12:20:04 145.935 - 145.965
EO-88 22 Aug 12:23:06 12:25:38 18° 290° (WNW) 12:28:09 145.990 - 145.960
NANOSAT C BR1 22 Aug 12:30:47 12:34:52 53° 74° (ENE) 12:38:56 145.865
JUGNU 22 Aug 12:31:33 12:35:20 17° 180° (S) 12:39:05 437.505
POLYITAN 1 22 Aug 12:36:55 12:41:06 73° 75° (ENE) 12:45:17 437.675
RS-15 22 Aug 12:39:43 12:51:49 65° 304° (NW) 13:04:07 29.354- 29.394
M-CUBED/EXP-1 PRIME 22 Aug 12:41:04 12:45:16 40° 258° (WSW) 12:49:38 437.505
SRMSAT 22 Aug 12:48:21 12:49:33 11° 166° (SSE) 12:50:44 437.500
QB50P2 22 Aug 12:52:11 12:56:21 65° 259° (W) 13:00:32 145.880/145.840
EO-79 22 Aug 12:52:15 12:56:27 72° 258° (WSW) 13:00:39 145.935-145.965
SPROUT 22 Aug 12:55:14 12:57:28 14° 93° (E) 12:59:42 437.525
ESTCUBE 1 22 Aug 12:58:25 13:02:58 74° 101° (ESE) 13:07:29 437.505/2401.250
VELOX 1 22 Aug 13:00:12 13:02:05 12° 92° (E) 13:03:58 145.980
AIST 2D 22 Aug 13:13:33 13:14:47 11° 267° (W) 13:16:01 435.315
BUGSAT 1 22 Aug 13:14:16 13:18:02 37° 73° (ENE) 13:21:48 437.445
DUCHIFAT 1 22 Aug 13:20:34 13:24:30 41° 261° (W) 13:28:27 145.980
LO-87 22 Aug 13:48:35 13:49:59 12° 292° (WNW) 13:51:23 145.935 - 145.965
AO-85 22 Aug 14:02:13 14:05:15 18° 51° (NE) 14:08:25 145.980
UKube-1 22 Aug 14:07:40 14:09:21 12° 93° (E) 14:11:01 .
Gurwin Techsat 1B 22 Aug 14:09:46 14:14:47 44° 71° (ENE) 14:19:49 435.225
50 SAT 22 Aug 14:18:17 14:21:24 35° 99° (E) 14:24:29 437.505
JUGNU 22 Aug 14:20:40 14:23:35 14° 190° (S) 14:26:29 437.505
Oscar 19 22 Aug 14:22:16 14:27:24 88° 256° (WSW) 14:32:36 437.125/150
SPROUT 22 Aug 14:29:32 14:33:30 39° 287° (WNW) 14:37:27 437.525
DX 1 22 Aug 14:30:47 14:34:49 37° 99° (E) 14:38:50 434.975-435.025
SRMSAT 22 Aug 14:34:21 14:37:56 16° 175° (S) 14:41:31 437.500
VELOX 1 22 Aug 14:34:31 14:38:45 48° 287° (WNW) 14:42:57 145.980
AO-7 22 Aug 14:49:06 14:55:41 27° 59° (ENE) 15:02:15 .
BEESAT 3 22 Aug 14:50:05 14:54:04 84° 64° (ENE) 14:57:58 437.485
BUGSAT 1 22 Aug 14:51:24 14:53:30 14° 266° (W) 14:55:35 437.445
RS-15 22 Aug 14:58:36 15:07:24 22° 331° (NNW) 15:16:12 29.354- 29.394
Tancredo 1 22 Aug 15:07:24 15:08:48 13° 28° (NNE) 15:10:12 437.200
BEESAT 2 22 Aug 15:07:54 15:11:43 39° 56° (ENE) 15:15:29 435.950
UKube-1 22 Aug 15:41:26 15:45:35 47° 287° (WNW) 15:49:43 .
AO-85 22 Aug 15:41:34 15:45:48 45° 244° (WSW) 15:50:20 145.980
ITAMSAT 1 22 Aug 15:46:01 15:50:48 38° 71° (ENE) 15:55:35 435.822/435.867
ITUPSAT 1 22 Aug 15:49:48 15:53:07 18° 94° (E) 15:56:25 437.325
Gurwin Techsat 1B 22 Aug 15:51:07 15:54:53 19° 266° (W) 15:58:39 435.225
DX 1 22 Aug 16:07:57 16:10:40 17° 293° (WNW) 16:13:22 434.975-435.025
YUBILEINY 22 Aug 16:18:32 16:27:02 56° 90° (E) 16:35:30 435.215
MOZHAYETS 4 22 Aug 16:19:05 16:23:17 34° 97° (E) 16:27:29
SRMSAT 22 Aug 16:22:51 16:26:21 16° 186° (S) 16:29:50 437.500
AO-7 22 Aug 16:39:29 16:47:46 65° 256° (WSW) 16:56:06 .
Tancredo 1 22 Aug 16:41:23 16:44:13 60° 225° (SW) 16:47:04 437.200
ISS 22 Aug 16:45:02 16:47:56 28° 35° (NE) 16:50:48 437.550
CUBESAT XI-V 22 Aug 16:45:47 16:47:36 12° 91° (E) 16:49:25 437.345
BEESAT 2 22 Aug 16:46:52 16:49:06 14° 251° (WSW) 16:51:18 435.950
BEESAT 22 Aug 16:50:41 16:55:29 89° 98° (E) 17:00:15 436.000
nSIGHT-1 22 Aug 16:50:57 16:53:57 34° 36° (NE) 16:56:56 .
